Home > Weather > Genoa > Past weeks

Flag for Italy Past Weather in Genoa, Italy — Yesterday and Last 2 Weeks

Now
81 °F

Passing clouds.


Feels Like: 84 °F
Forecast: 69 / 87 °F
Wind: 5 mph from South

Location: Genova / Sestri

Current Time: Jul 25, 2016 at 4:06:29 PM

Latest Report: Jul 25, 2016 at 3:20 PM


Visibility: N/A

Pressure: 29.95 "Hg

Humidity: 70%

Dew Point: 70 °F

Location of GenoaLocation

Past Weather in Genoa — Graph

°F

Genoa Temperature Yesterday

Maximum temperature yesterday: 90 °F (at 3:20 PM)
Minimum temperature yesterday: 73 °F (at 7:20 AM)
Average temperature yesterday: 80 °F

High & Low Weather Summary for the Past Weeks

 TemperatureHumidityPressure
High90 °F (Jul 24, 3:20 PM)94% (Jul 13, 8:50 PM)30.18 "Hg (Jul 13, 8:50 PM)
Low55 °F (Jul 13, 8:50 PM)17% (Jul 15, 5:50 PM)29.68 "Hg (Jul 13, 6:50 PM)
Average75 °F59%29.99 "Hg
* Reported Jul 10 2:20 PM — Jul 25 2:50 PM, Genoa, Weather by CustomWeather, © 2016

Note: Actual official high and low records may vary slightly from our data, if they occured in-between our weather recording intervals... More about our weather records

Advertising

Genoa Weather History for the Previous 24 Hours

Scroll right to see more
 ConditionsComfort  
Time TempWeatherWind HumidityBarometerVisibility
2:50 PM
Mon, Jul 25
81 °FPassing clouds.3 mph66%29.98 "HgN/A
2:20 PM81 °FPassing clouds.5 mph70%29.98 "HgN/A
1:50 PM81 °FPassing clouds.6 mph70%29.98 "HgN/A
1:20 PM81 °FPassing clouds.7 mph70%29.95 "HgN/A
12:50 PM79 °FPassing clouds.7 mph70%29.95 "HgN/A
12:20 PM79 °FPassing clouds.6 mph74%29.95 "HgN/A
11:50 AM79 °FPassing clouds.5 mph70%29.95 "HgN/A
11:20 AM79 °FSunny.6 mph70%29.95 "Hg10 mi
10:50 AM79 °FSunny.8 mph70%29.95 "Hg10 mi
10:20 AM79 °FSunny.8 mph65%29.95 "Hg10 mi
9:50 AM77 °FSunny.6 mph65%29.95 "Hg10 mi
9:20 AM79 °FSunny.3 mph61%29.95 "Hg10 mi
8:50 AM79 °FPassing clouds.3 mph58%29.95 "HgN/A
8:20 AM75 °FSunny.5 mph65%29.98 "Hg10 mi
7:50 AM73 °FSunny.6 mph69%29.95 "Hg10 mi
7:20 AM73 °FPassing clouds.5 mph69%29.98 "HgN/A
6:50 AM72 °FClear.5 mph69%29.98 "Hg10 mi
6:20 AM72 °FPassing clouds.6 mph69%29.98 "HgN/A
5:50 AM72 °FClear.6 mph73%29.98 "Hg10 mi
5:20 AM73 °FPassing clouds.5 mph69%29.98 "HgN/A
4:50 AM73 °FPassing clouds.3 mph69%29.98 "HgN/A
4:20 AM77 °FClear.2 mph61%29.98 "Hg10 mi
3:50 AM77 °FPassing clouds.3 mph61%29.98 "HgN/A
3:20 AM77 °FClear.8 mph65%29.98 "Hg10 mi
2:50 AM77 °FPassing clouds.10 mph57%29.98 "HgN/A
2:20 AM75 °FClear.3 mph65%29.98 "Hg10 mi
1:50 AM77 °FPassing clouds.3 mph57%29.95 "HgN/A
1:20 AM79 °FPassing clouds.5 mph54%29.95 "HgN/A
12:50 AM77 °FClear.2 mph61%29.98 "Hg10 mi
12:20 AM81 °FPassing clouds.7 mph51%29.98 "HgN/A
11:50 PM
Sun, Jul 24
81 °FClear.9 mph51%29.95 "Hg10 mi
11:20 PM81 °FClear.9 mph51%29.95 "Hg10 mi
10:50 PM81 °FPassing clouds.7 mph51%29.95 "HgN/A
10:20 PM81 °FPassing clouds.5 mph51%29.95 "HgN/A
9:50 PM81 °FPassing clouds.5 mph51%29.95 "HgN/A
9:20 PM81 °FPassing clouds.5 mph54%29.95 "HgN/A
8:50 PM81 °FPassing clouds.3 mph48%29.95 "HgN/A
8:20 PM82 °FPassing clouds.3 mph48%29.95 "HgN/A
7:50 PM84 °FPassing clouds.10 mph40%29.95 "HgN/A
7:20 PM84 °FPassing clouds.7 mph35%29.95 "HgN/A
6:50 PM84 °FPassing clouds.9 mph37%29.95 "HgN/A
6:20 PM84 °FPassing clouds.7 mph35%29.95 "HgN/A
5:50 PM82 °FScattered clouds.8 mph40%29.95 "HgN/A
5:20 PM81 °FScattered clouds.14 mph45%29.98 "HgN/A
4:50 PM84 °FScattered clouds.12 mph40%29.98 "HgN/A
4:20 PM86 °FPassing clouds.5 mph46%29.98 "HgN/A
Weather by CustomWeather, © 2016

See weather overviewHow to use our weather pages